Location: Katherine
(14.4670°S, 132.2670°E)
Time: 08:04:00
(UTC+09:30)

ISS - Pass Details

Date: 23 May 2017
Orbit: 402 x 408 km, 51.6° (Epoch: 27 May)

Event Time Altitude Azimuth Distance (km) Brightness Sun altitude
Rises 19:05:32 0° 233° (SW) 2,337 0.6 -11.4°
Reaches altitude 10° 19:07:49 10° 246° (WSW) 1,472 -0.3 -11.9°
Maximum altitude 19:10:39 26° 305° (NW) 842 -1.3 -12.6°
Drops below altitude 10° 19:13:27 10° 4° (N) 1,460 -0.8 -13.2°
Sets 19:15:43 0° 17° (NNE) 2,314 0.0 -13.7°
